Regional Weather Roundup
Issued by NWS

Home | Current Version | Previous Version | Text Only | Print | Product List | Glossary On
Versions: 1 2 3 4 5 6 7 8 9 10 11 12 13 14 15 16 17 18 19 20 21 22 23 24 25 26 27 28 29 30 31 32 33 34 35 36 37 38 39 40 41 42 43 44 45 46 47 48 49 50
000
ASUS44 KJAN 221610
RWRMS

MISSISSIPPI HOURLY WEATHER ROUNDUP
NATIONAL WEATHER SERVICE JACKSON MS
1000 AM CST WED FEB 22 2017

NOTE: "FAIR: INDICATES FEW OR NO CLOUDS BELOW 12,000 FEET WITH NO
SIGNIFICANT WEATHER AND/OR OBSTRUCTIONS TO VISIBILITY.

MSZ001>002-007>008-010>013-018>021-025>028-034>036-221700-
NORTHWEST MISSISSIPPI

CITY           SKY/WX    TMP DP  RH WIND       PRES   REMARKS
BATESVILLE     CLOUDY    62  60  91 E3        29.91S
CLEVELAND      FOG       57  57 100 N3        29.89F VSB 3/4
GREENWOOD      CLOUDY    60  57  89 NE9       29.89F
GREENVILLE     CLOUDY    58  57  97 N8        29.89F FOG
OLIVE BRANCH   MOSUNNY  N/A N/A N/A E5        29.90S
OXFORD         PTSUNNY   57  57 100 E6        29.92F
TUNICA         SUNNY     64  59  82 NE9       29.90S
WINONA         CLOUDY    58  58 100 N3        29.90R
$$

MSZ003>006-009-014>017-022>024-029>033-037>039-221700-
NORTHEAST MISSISSIPPI

CITY           SKY/WX    TMP DP  RH WIND       PRES   REMARKS
COLUMBUS AFB   CLOUDY    61  59  94 CALM      29.88R
CORINTH        CLOUDY    61  57  88 CALM      29.90F
GOLDN TRIANGLE CLOUDY    61  55  82 CALM      29.84R
TUPELO         CLOUDY    59  56  89 N9        29.90R
$$

MSZ040-058-221700-
CENTRAL MISSISSIPPI

CITY           SKY/WX    TMP DP  RH WIND       PRES   REMARKS
JACKSON INTL   CLOUDY    57  56  96 NE7       29.90R FOG
JACKSON HAWKNS PTSUNNY   58  55  90 VRB3      29.90S
MADISON        CLOUDY   N/A N/A N/A CALM      29.90S
MERIDIAN KEY   CLOUDY    64  60  87 N3        29.87R
MERIDIAN NAS   CLOUDY    63  57  81 VRB3      29.87S
VICKSBURG VKS  CLOUDY    57  57 100 NW7       29.88S
$$

MSZ059>079-221700-
SOUTH MISSISSIPPI

CITY           SKY/WX    TMP DP  RH WIND       PRES   REMARKS
BROOKHAVEN     PTSUNNY  N/A N/A N/A NW5       29.90R
COLUMBIA       PTSUNNY   64 N/A N/A VRB7      29.89F
HATTIESBURG    CLOUDY    57  56  96 N5        29.88R
LAUREL         CLOUDY    59  59 100 N6        29.88R
MCCOMB         SUNNY     67  53  61 N9        29.87F
NATCHEZ        CLOUDY    57  54  88 NE5       29.89S
PINE BELT      CLOUDY    55  54  94 N7        29.89S
$$

MSZ080>082-221700-
COASTAL MISSISSIPPI

CITY           SKY/WX    TMP DP  RH WIND       PRES   REMARKS
BAY ST LOUIS   MOSUNNY   66  54  63 N8        29.83F
BILOXI         PTSUNNY   63  59  88 N5        29.83S
PASCAGOULA     CLOUDY    65  56  72 N9        29.82F
GULFPORT       MOSUNNY   64  58  80 N7        29.83F
$$

LAZ007>009-015>016-023>026-221700-
NORTHEAST LOUISIANA

CITY           SKY/WX    TMP DP  RH WIND       PRES   REMARKS
BASTROP        CLOUDY    61  58  90 CALM      29.91S
TALLULAH/VBURG CLOUDY    57  56  96 N6        29.91S
VIDALIA        CLOUDY    59  56  91 NE5       29.90R
$$



USA.gov is the U.S. government's official web portal to all federal, state and local government web resources and services.